Showing default

ORBCOMM FM 18, 25414

Orbit data source: Space-Track

ORBCOMM FM 18, 25414 is a payload satellite owned by Orbcomm (US) in LEO that was launched on Sun, 02 Aug 1998 UTC via a PEGASUS XL/HAPS launch vehicle from the Pegasus Launch, Eastern Range Air Space (ERAS). Payload-class satellites include a variety of spacecraft equipped with specific instruments for various scientific and technological missions. These include communications satellites like Starlink; space stations such as the ISS; scientific satellites like the Hubble; Earth observation satellites from companies like Planet Labs, Umbra, and HawkEye 360; GPS; miniature CubeSats for education and research; and military/defense satellites.

Loading next visibility...
Identifier
25414, 1998-046B
Orbit
LEO
Country
Flag of USUS / ORB
Related business
Manufacturer
OSC-Germantown
Mission
Non-operational Commercial Communications
Bus & Motor
MICROSTAR, Unknown motor
Mass
42 kg wet, 42 kg dry
Launch date (UTC)
1998-08-02 (27 years ago)
Launch vehicle
PEGASUS XL/HAPS
Launch site
Pegasus Launch, Eastern Range Air Space (ERAS)
Object type
Payload
Rocket body
Debris
Shape & HBR
Cyl + 2 Pan, 2.1 m
Radar Cross Section
1.484 m², Medium (>0.1 m² and < 1m²)

Expand to show TLE details & history
Last TLE update: 21 hours ago

TLE from 21 hours ago
0 ORBCOMM FM 18
1 25414U 98046B   25260.01348771  .00000900  00000-0  33614-3 0  9998
2 25414  44.9922  99.1084 0004936  33.4064 326.7096 14.38770364417470
Epoch: 2025-09-17T00:19Z
TLE epoch observation values (Epoch: 2025-09-17T00:19:25.338Z)
Latitude
0.00006°
Longitude
98.05735°
Altitude
759.617 km
Speed
7.478 km/s
True Right ascension
06h 36m 26s
True Declination
0° 00' 00"
Sunlit
Object was in daylight at epoch
Visualization orbit readout
Latitude
Unknown
Longitude
Unknown
Altitude
Unknown
Speed
Unknown
Apparent Right ascension
Unknown
Apparent Declination
Unknown
Sunlit
N/A
Visualization observer readout
Local Sidereal Time
14:10:34
Azimuth
Unknown
Elevation
Unknown
Doppler factor
Unknown
Orbital elements
Apogee altitude
767.637 km
Perigee altitude
760.586 km
Semi-major axis
7,142.249 km
Eccentricity
0.00049
Inclination
44.9922°
RAAN
99.1084°
Arg. of periapsis
33.4064°
True anomaly
326.67854°
Mean anomaly
326.7096°
Eccentric anomaly
326.69407°
Mean motion
3.59576 °/min
Orbital period
100.12 mins
BSTAR
0.00033614
Loading maneuver chart data...
Computing Atmospheric mass density...

Documentation

Showing up to 5 results
|